Temp
13 13 13 13 13 13 13 12 12 12 12 12 12 12 11 11 11 11 11 11 11 11 11 12 11 11 11 11 11 11 11 11 11 11 11 11 11 11 11 10 10 10
13 13 13 13 13 13 13 13 13 12 12 12 12 12 12 12 11 11 11 11 11 11 11 12 12 11 11 11 11 11 11 11 11 11 11 11 11 11 11 11 10 10
13 13 13 13 13 13 13 13 13 13 13 12 12 12 12 12 12 12 11 11 11 11 11 12 12 12 12 11 11 11 11 11 11 11 11 11 11 11 11 11 11 10
14 13 13 13 13 13 13 13 13 13 13 13 13 12 12 12 12 12 12 12 11 11 11 12 12 12 12 12 12 12 11 11 11 11 11 11 11 11 11 11 11 10
14 14 13 13 13 13 13 13 13 13 13 13 13 13 13 13 12 12 12 12 12 12 12 12 12 12 12 12 12 12 12 12 11 11 11 11 11 11 11 11 11 11
14 14 14 14 14 13 13 13 13 13 13 13 13 13 13 13 13 12 12 12 12 12 12 12 12 12 12 12 12 12 12 12 12 12 11 11 11 11 11 11 11 11
14 14 14 14 14 14 14 14 14 13 13 13 13 13 13 13 13 13 12 12 13 12 12 12 13 13 13 13 12 12 12 12 12 12 12 12 11 11 11 11 11 11
14 14 14 14 14 14 14 14 14 14 14 14 14 13 13 13 13 13 13 13 13 13 13 13 13 13 13 13 13 12 12 12 12 12 12 12 12 12 11 11 11 11
15 14 14 14 14 14 14 14 14 14 14 14 14 14 14 14 13 13 13 13 13 13 13 13 13 13 13 13 13 13 12 12 12 12 12 12 12 12 12 11 11 11
15 14 14 14 14 14 14 14 14 14 14 14 14 14 14 14 14 13 13 13 13 13 13 13 13 13 13 13 13 13 13 12 12 12 12 12 12 12 12 12 12 12
14 14 14 14 14 14 14 14 14 14 14 14 14 14 14 14 14 13 13 13 13 13 13 13 13 13 13 13 13 13 13 13 12 12 12 12 12 12 12 12 12 12
15 14 14 14 14 14 14 14 14 14 14 14 14 14 14 14 14 14 13 14 13 13 13 13 13 13 13 13 13 13 13 13 13 12 12 12 12 12 12 12 12 12
15 15 14 14 14 14 14 14 14 14 14 15 15 14 14 14 14 14 14 14 13 13 13 14 13 13 13 13 14 13 13 13 13 13 12 12 12 12 12 12 12 12
15 15 15 14 14 14 14 14 14 14 14 15 15 15 14 14 14 14 14 14 13 14 14 14 14 14 13 13 14 14 13 13 13 13 12 12 12 12 12 12 12 12
15 15 15 15 14 14 14 14 14 14 14 15 15 15 15 15 15 14 14 14 14 14 14 14 14 14 14 14 14 14 14 13 13 13 13 13 12 12 12 12 12 12
16 15 15 15 15 15 15 14 14 14 15 15 15 15 15 15 15 15 14 14 14 14 14 14 14 15 14 14 14 14 14 13 13 13 13 13 13 12 12 12 12 12
16 16 15 15 15 15 15 15 15 15 15 15 15 15 15 15 15 15 15 15 15 15 15 15 15 15 15 14 14 14 14 13 13 13 13 13 13 13 12 12 12 12
16 16 16 16 16 16 16 15 15 15 15 15 16 16 16 16 16 15 15 15 15 15 15 15 15 15 15 15 14 14 14 13 13 13 13 13 13 13 13 12 12 12
16 16 16 16 16 16 16 15 15 15 15 16 16 16 16 16 16 16 16 16 16 16 16 16 15 15 15 15 14 14 14 14 13 13 13 13 13 13 13 13 12 12
17 17 16 16 16 16 16 16 15 15 15 15 15 15 16 16 16 16 16 16 16 16 16 16 16 16 15 15 15 14 14 14 13 13 13 13 13 13 13 13 13 13
17 17 17 16 16 16 16 16 16 15 15 15 15 15 16 16 16 16 16 16 16 16 16 16 16 16 16 15 15 15 14 14 14 13 13 13 13 13 13 13 13 13
17 17 17 16 16 16 16 16 16 16 16 15 15 15 15 16 16 16 16 16 16 16 16 16 16 16 16 16 15 15 14 14 14 14 14 14 13 13 13 13 13 13
17 17 17 17 17 17 17 16 16 16 16 16 16 16 15 16 16 16 16 16 16 16 16 16 16 16 16 16 16 15 15 14 14 14 14 14 14 14 14 14 13 13
18 17 17 17 17 17 17 17 17 16 16 16 16 16 16 16 16 16 16 16 16 16 16 16 16 16 16 16 16 15 15 15 14 14 14 14 14 14 14 14 13 13
18 18 18 18 17 17 17 17 17 17 17 17 17 16 16 16 16 16 16 16 16 16 16 16 16 16 16 16 16 15 15 15 15 14 14 14 14 14 14 14 14 13
18 18 18 18 18 17 17 17 17 17 17 17 17 17 16 16 16 16 16 16 16 16 16 16 15 15 15 16 15 15 15 15 15 14 14 14 14 14 14 14 14 13
Height
3193 3195 3196 3198 3199 3201 3202 3203 3205 3205 3206 3207 3208 3209 3210 3211 3211 3212 3213 3214 3215 3215 3216 3217 3218 3219 3219 3220 3220 3221 3221 3222 3222 3223 3223 3224 3224 3224 3224 3224 3223 3223
3191 3192 3194 3196 3197 3198 3200 3201 3203 3203 3204 3205 3206 3207 3208 3209 3209 3210 3211 3211 3212 3213 3214 3215 3216 3217 3218 3218 3219 3219 3220 3220 3221 3222 3222 3223 3223 3223 3223 3223 3223 3223
3188 3190 3191 3193 3195 3196 3198 3199 3200 3201 3202 3203 3204 3205 3206 3207 3207 3208 3208 3209 3210 3211 3212 3213 3214 3215 3216 3217 3217 3218 3218 3219 3219 3220 3220 3221 3222 3222 3223 3223 3223 3222
3185 3187 3189 3191 3193 3194 3195 3196 3198 3199 3200 3201 3202 3203 3204 3205 3205 3206 3206 3207 3208 3209 3209 3210 3211 3212 3214 3215 3216 3216 3217 3217 3218 3218 3219 3219 3220 3220 3221 3221 3221 3221
3183 3184 3186 3188 3190 3191 3192 3193 3195 3196 3198 3199 3200 3201 3201 3202 3203 3203 3204 3205 3206 3206 3207 3208 3209 3210 3211 3213 3214 3214 3215 3216 3216 3216 3217 3217 3218 3219 3219 3219 3220 3220
3180 3182 3183 3185 3187 3188 3189 3191 3192 3194 3195 3196 3197 3198 3199 3200 3200 3201 3201 3202 3203 3204 3205 3206 3207 3208 3209 3210 3211 3212 3214 3214 3214 3215 3215 3216 3216 3217 3217 3217 3218 3218
3177 3178 3180 3182 3184 3185 3186 3188 3189 3190 3192 3193 3194 3195 3196 3197 3198 3198 3199 3200 3201 3201 3202 3203 3204 3206 3207 3208 3209 3210 3211 3212 3213 3213 3214 3214 3214 3215 3215 3216 3216 3216
3173 3175 3177 3179 3180 3181 3183 3184 3186 3187 3189 3190 3190 3192 3193 3194 3195 3196 3196 3197 3197 3198 3199 3200 3202 3203 3204 3205 3207 3208 3209 3210 3211 3212 3212 3212 3212 3213 3213 3214 3214 3214
3170 3171 3173 3175 3176 3178 3179 3181 3182 3184 3185 3186 3187 3189 3190 3191 3192 3193 3193 3194 3194 3195 3196 3197 3199 3200 3201 3203 3204 3206 3207 3207 3208 3210 3210 3210 3211 3211 3211 3212 3212 3212
3166 3168 3170 3171 3172 3174 3176 3178 3179 3180 3182 3183 3184 3185 3186 3187 3188 3189 3190 3190 3191 3192 3193 3194 3196 3197 3198 3200 3202 3203 3204 3205 3206 3207 3208 3208 3209 3209 3209 3210 3210 3211
3163 3165 3166 3168 3169 3171 3172 3174 3176 3177 3178 3179 3180 3181 3182 3183 3185 3186 3186 3187 3188 3188 3189 3191 3193 3194 3195 3197 3199 3200 3201 3202 3203 3205 3206 3206 3206 3207 3207 3207 3208 3209
3160 3162 3163 3165 3167 3168 3170 3171 3173 3174 3175 3176 3177 3178 3179 3180 3181 3182 3182 3183 3185 3186 3186 3188 3190 3191 3192 3194 3196 3197 3198 3199 3200 3202 3203 3203 3204 3204 3204 3205 3206 3206
3157 3159 3161 3163 3164 3166 3168 3169 3170 3171 3171 3173 3174 3175 3175 3176 3177 3179 3179 3180 3182 3183 3184 3185 3186 3188 3189 3190 3192 3194 3195 3196 3197 3198 3200 3200 3201 3201 3201 3202 3203 3204
3154 3156 3159 3160 3162 3163 3165 3166 3167 3168 3168 3169 3170 3171 3172 3173 3174 3175 3177 3177 3178 3180 3181 3181 3183 3184 3186 3187 3189 3190 3191 3193 3194 3195 3196 3197 3198 3198 3198 3199 3200 3201
3151 3154 3156 3158 3159 3160 3162 3163 3164 3165 3166 3166 3167 3168 3169 3170 3171 3172 3173 3174 3175 3176 3177 3178 3179 3180 3182 3184 3185 3186 3188 3189 3190 3192 3193 3194 3194 3195 3195 3196 3197 3198
3148 3151 3153 3154 3155 3157 3158 3160 3161 3162 3163 3163 3164 3165 3166 3167 3168 3169 3170 3170 3171 3173 3174 3174 3175 3176 3178 3180 3182 3183 3185 3186 3187 3188 3190 3190 3191 3191 3192 3192 3193 3194
3145 3148 3149 3151 3152 3153 3155 3157 3158 3159 3160 3160 3161 3162 3163 3164 3165 3166 3167 3167 3168 3169 3170 3170 3171 3172 3175 3177 3179 3180 3181 3182 3183 3184 3186 3187 3187 3187 3188 3189 3190 3190
3142 3144 3146 3147 3149 3150 3152 3154 3155 3156 3157 3157 3158 3159 3161 3162 3162 3163 3164 3164 3165 3165 3166 3167 3167 3169 3171 3173 3175 3177 3178 3178 3179 3180 3182 3182 3183 3183 3184 3185 3186 3187
3138 3140 3142 3144 3145 3147 3149 3150 3152 3153 3154 3154 3155 3156 3158 3158 3158 3159 3161 3161 3161 3161 3162 3163 3164 3165 3167 3169 3171 3173 3174 3175 3175 3176 3177 3178 3178 3179 3180 3181 3182 3182
3135 3137 3139 3140 3142 3144 3145 3147 3149 3150 3151 3152 3152 3153 3154 3154 3155 3156 3157 3158 3158 3158 3158 3159 3160 3161 3163 3165 3167 3169 3170 3171 3171 3172 3173 3173 3174 3175 3175 3176 3177 3177
3132 3134 3135 3137 3139 3140 3142 3144 3145 3147 3148 3148 3149 3149 3150 3150 3151 3152 3153 3154 3154 3154 3154 3155 3156 3157 3159 3161 3163 3164 3166 3167 3167 3168 3169 3169 3170 3170 3171 3172 3172 3172
3128 3130 3132 3134 3136 3137 3139 3141 3142 3144 3145 3145 3145 3146 3146 3147 3147 3148 3148 3149 3150 3150 3151 3151 3152 3154 3154 3156 3158 3160 3161 3162 3162 3162 3164 3165 3165 3165 3166 3167 3167 3167
3125 3127 3129 3131 3133 3134 3135 3137 3139 3140 3141 3141 3142 3142 3142 3142 3143 3144 3144 3145 3145 3146 3147 3147 3149 3150 3150 3152 3154 3155 3156 3157 3157 3157 3158 3160 3160 3160 3160 3161 3162 3162
3121 3123 3125 3127 3128 3130 3131 3133 3135 3136 3136 3137 3137 3137 3138 3138 3138 3139 3139 3140 3141 3142 3142 3143 3144 3145 3146 3147 3149 3151 3152 3152 3152 3153 3153 3155 3156 3155 3155 3155 3156 3156
3118 3120 3121 3122 3124 3125 3127 3129 3130 3132 3132 3132 3133 3133 3133 3133 3133 3134 3134 3135 3136 3137 3137 3138 3139 3139 3140 3141 3143 3145 3146 3147 3147 3148 3148 3150 3151 3150 3149 3149 3150 3150
3114 3115 3117 3118 3119 3121 3123 3124 3126 3127 3127 3127 3128 3128 3128 3129 3129 3129 3130 3130 3131 3131 3132 3133 3134 3134 3134 3135 3137 3138 3139 3140 3141 3142 3143 3144 3145 3145 3144 3143 3144 3144
Wind_Speed
27 25 24 23 22 21 20 19 18 18 18 18 16 15 13 13 15 18 20 21 23 24 25 27 27 26 25 23 21 20 18 16 14 11 10 9 8 8 8 8 8 9
28 26 25 24 23 22 21 21 20 20 20 19 19 17 16 15 17 19 21 23 24 25 26 28 29 28 27 26 24 22 21 19 17 15 13 12 11 10 10 9 9 10
30 28 27 25 24 23 22 23 23 22 22 21 21 20 18 17 18 20 23 24 26 27 28 29 30 30 29 28 26 24 23 21 20 18 16 15 14 13 12 11 11 11
31 30 28 26 25 24 24 25 25 24 24 23 21 21 20 20 19 20 23 25 27 28 29 30 31 31 30 29 28 26 24 23 22 20 18 17 16 15 14 14 13 13
31 31 29 28 27 27 26 26 26 25 25 25 23 23 22 21 20 21 23 25 27 28 29 30 32 32 31 30 29 28 26 25 24 22 20 18 17 17 17 16 15 15
31 31 31 30 29 29 28 28 27 26 27 27 26 25 24 22 22 22 23 25 27 29 29 30 32 33 32 31 30 29 27 26 25 23 22 20 19 18 18 18 17 17
31 31 31 31 30 30 30 29 29 29 29 29 28 27 26 24 23 23 24 25 27 29 30 29 31 33 33 31 31 30 29 28 27 25 23 22 21 20 19 19 18 18
31 31 32 32 32 32 32 31 31 31 31 31 30 29 27 26 25 25 25 26 27 29 30 30 31 33 34 32 31 31 30 29 28 26 25 24 22 21 20 20 20 20
29 30 31 32 33 33 33 33 32 32 32 32 32 31 30 29 27 27 27 27 29 30 31 31 31 33 35 34 32 31 31 31 29 28 27 26 24 23 22 22 21 21
26 27 28 30 31 32 33 33 33 34 34 33 33 32 31 30 29 29 29 29 30 31 32 32 31 33 35 35 33 32 32 32 31 29 29 28 27 25 24 23 22 22
26 26 26 27 27 28 29 30 32 33 32 32 32 32 31 30 30 30 31 31 32 32 32 32 32 33 35 35 34 33 33 33 32 31 30 29 29 28 26 25 24 23
28 27 27 26 25 26 26 27 28 28 28 27 28 28 29 30 30 31 32 32 32 33 33 33 33 33 35 36 35 34 34 34 34 33 32 31 30 30 29 27 25 24
30 29 28 27 26 26 26 26 26 26 25 24 24 26 28 29 30 31 32 33 33 33 34 34 34 34 35 37 36 36 36 36 36 35 34 33 32 31 30 29 27 26
31 29 28 28 28 27 27 27 26 26 25 24 24 25 26 28 29 30 31 33 34 34 35 36 35 35 36 37 37 37 37 37 37 36 35 34 34 33 32 30 29 27
32 30 29 30 30 29 29 29 28 27 26 26 25 24 25 26 27 29 31 33 34 35 36 36 37 36 36 37 38 38 38 38 38 37 36 36 35 34 34 32 31 29
33 32 31 32 32 31 30 30 29 29 28 27 26 25 25 25 26 28 30 32 34 36 36 37 38 38 36 37 37 38 39 39 39 39 38 37 37 36 36 35 34 32
34 33 34 34 33 32 31 31 30 30 29 28 27 26 26 25 26 28 29 31 33 35 36 38 38 38 37 36 37 38 40 40 41 40 40 39 39 38 38 37 36 35
36 36 36 35 35 34 32 32 31 31 31 30 29 28 27 26 27 27 28 30 32 33 35 37 37 37 37 37 37 39 40 41 42 42 42 41 41 41 40 39 38 37
37 37 37 37 37 36 34 33 33 32 32 32 31 30 29 29 29 28 28 29 31 32 34 36 37 38 37 37 38 39 41 43 44 44 44 43 43 43 42 41 40 39
37 38 38 38 38 37 36 35 34 34 33 33 33 33 33 32 32 31 30 31 32 33 34 35 36 37 37 38 39 40 41 43 45 45 45 45 45 45 44 43 42 42
36 37 38 38 38 38 37 37 36 35 35 35 36 36 36 36 34 34 33 33 34 35 36 36 36 36 36 38 39 40 42 44 46 47 46 46 46 46 46 45 44 45
35 36 37 37 37 37 37 36 35 35 35 36 36 37 38 38 37 36 36 37 36 36 37 38 37 36 36 37 38 40 43 45 47 48 47 47 47 47 47 47 46 47
34 34 34 35 35 35 34 34 34 34 35 35 36 38 40 40 40 39 39 39 39 38 39 39 38 37 37 37 37 39 42 46 48 49 49 48 48 49 49 49 48 49
33 33 34 35 35 35 35 34 34 34 35 36 38 39 40 41 41 41 41 40 40 39 40 40 39 39 39 39 38 40 42 45 48 50 51 50 49 51 51 51 50 51
34 35 35 36 36 35 33 32 31 31 32 35 37 40 41 42 43 43 43 41 40 40 41 41 41 41 41 41 40 41 43 46 48 50 52 51 52 53 54 54 53 53
34 35 35 35 35 34 32 32 32 31 30 30 32 36 40 41 42 44 44 43 42 42 42 42 42 43 43 43 42 43 44 47 49 51 52 52 53 54 56 57 56 56
Wind_Direction
217 218 219 222 224 227 229 232 235 237 239 241 244 246 242 235 227 223 222 221 221 219 216 215 217 219 220 219 218 219 222 225 228 230 236 249 264 278 291 303 312 322
219 220 221 224 226 229 231 233 235 238 240 241 243 245 243 240 235 229 224 223 222 222 219 217 218 220 221 222 221 222 225 229 232 234 237 244 254 263 273 284 294 304
222 223 224 226 230 233 234 234 234 237 240 241 242 245 245 243 241 237 231 226 223 222 221 220 219 221 222 223 224 224 226 229 232 236 239 244 251 257 263 270 278 288
224 225 226 228 231 234 235 235 234 235 239 243 244 246 248 247 246 244 239 232 226 224 223 222 221 222 223 224 226 226 227 230 232 235 238 244 250 256 260 264 271 278
227 227 228 229 231 234 235 236 235 234 237 243 245 246 248 249 248 248 246 240 233 228 226 223 222 223 223 225 227 228 228 231 233 236 239 244 249 255 259 263 268 274
230 230 230 230 232 235 237 237 236 235 237 241 245 246 247 249 248 247 248 245 239 234 231 227 224 224 224 226 228 230 230 231 234 236 239 243 247 252 258 262 267 272
230 231 232 233 234 236 237 237 237 237 239 242 244 246 247 249 249 248 248 247 243 238 234 231 227 226 226 227 229 231 232 233 235 236 239 242 246 250 256 261 265 270
230 232 233 235 236 238 239 240 240 241 242 244 246 248 249 250 250 249 248 247 245 241 237 234 230 228 228 228 229 232 233 234 235 237 240 243 245 248 253 259 263 268
230 232 234 236 238 240 241 242 244 245 247 248 249 250 250 250 249 248 247 246 245 243 239 236 232 229 229 230 230 232 234 236 237 238 241 244 246 247 252 256 260 265
228 230 233 235 238 240 242 243 245 247 249 250 250 250 250 248 247 246 245 244 244 244 241 238 234 231 230 231 231 233 235 236 238 239 241 244 247 248 251 255 259 264
227 227 230 232 234 237 239 241 244 246 247 248 248 248 247 245 243 242 243 243 242 244 243 240 236 233 232 232 232 233 236 237 238 239 242 244 247 250 252 255 258 263
228 228 230 231 233 236 238 239 241 243 245 245 244 244 243 242 240 240 242 243 242 243 244 243 239 235 234 234 233 233 235 238 239 240 242 244 247 250 253 256 259 262
228 228 230 232 234 236 239 241 243 244 245 244 243 242 242 242 240 239 241 242 242 242 244 244 241 237 235 235 234 234 235 237 240 241 243 245 247 250 254 256 259 262
225 226 228 231 234 235 237 241 243 246 248 248 246 243 243 244 243 242 241 242 243 242 243 244 243 239 236 236 235 235 235 236 239 242 244 246 249 252 255 258 260 262
223 223 225 228 231 232 234 237 241 244 246 248 248 247 245 246 246 244 243 243 243 243 243 243 244 242 238 236 236 236 236 237 239 242 245 247 250 253 256 259 260 262
221 222 223 226 230 232 232 235 238 242 245 247 249 249 248 248 247 246 245 245 244 244 244 243 244 244 241 238 237 237 238 238 239 242 245 248 251 254 256 259 261 263
221 221 224 226 229 231 232 233 236 240 244 248 249 250 250 250 249 248 248 248 247 246 246 245 245 245 243 240 239 238 239 239 240 242 244 247 250 253 255 258 261 262
221 221 224 227 229 232 233 233 235 238 243 247 250 251 252 252 252 252 251 252 252 250 248 248 248 247 245 242 240 239 239 240 241 243 244 246 249 251 254 256 259 260
222 222 224 227 229 231 232 232 233 237 242 247 250 252 253 253 254 254 253 253 254 254 252 250 249 248 246 244 241 240 240 241 242 243 244 246 247 250 252 254 257 258
223 224 225 227 228 229 230 231 232 235 240 245 249 251 252 253 254 254 253 253 254 256 255 253 251 250 248 245 243 241 240 241 242 243 244 246 248 250 252 253 255 257
225 225 226 226 227 228 230 231 232 233 237 241 246 249 251 253 254 254 253 252 252 254 256 255 254 253 251 247 244 242 241 241 242 244 245 247 249 251 252 253 254 256
227 227 227 228 229 231 233 234 234 235 237 240 243 247 251 253 254 254 254 253 251 252 254 256 256 255 254 251 247 244 242 242 243 244 245 247 249 251 253 254 255 256
227 227 228 229 231 234 235 236 237 237 238 240 243 246 249 252 254 255 255 255 254 253 253 256 258 258 257 256 251 247 245 244 244 244 245 247 249 252 254 254 255 256
227 227 227 228 230 232 233 235 237 238 239 241 242 244 246 250 252 253 255 256 256 255 253 254 255 256 257 256 253 249 247 247 246 246 247 248 249 251 253 254 255 255
225 226 227 228 228 228 228 231 236 241 244 246 246 246 246 248 249 252 254 255 256 255 254 253 252 252 253 254 252 250 247 247 247 248 248 249 250 251 252 253 254 254
225 226 227 229 229 228 230 235 240 244 250 256 255 251 249 249 251 253 255 256 255 255 254 253 252 252 252 251 251 249 246 245 245 247 249 250 251 252 253 253 254 254